Weather History for Anderson, SC

Change the Weather History Date:

Friday, December 7, 2012

  Actual Average Record
Temperature  
Mean Temperature 52 °F -  
Max Temperature 60 °F 55 °F 75 °F (1960)
Min Temperature 44 °F 34 °F 15 °F (1984)
Degree Days  
Heating Degree Days 13    
Growing Degree Days 2 (Base 50)    
Moisture  
Dew Point 43 °F    
Average Humidity 75    
Maximum Humidity 97    
Minimum Humidity 59    
Precipitation  
Precipitation 0.00 in - - ()
Sea Level Pressure  
Sea Level Pressure 30.09 in    
Wind  
Wind Speed 4 mph (NE)    
Max Wind Speed 10 mph    
Max Gust Speed -    
Visibility 10 miles    
Events Rain    
Averages and records for this station are not official NWS values.
T = Trace of Precipitation, MM = Missing Value Source: NWS Daily Summary

Daily Weather History Graph

Daily Weather History Graph

Search for Another Location

Airport:

Trip Planner

Search our weather history database for the weather conditions in past years. The results will help you decide how hot, cold, wet, or windy it might be!

Date:

Astronomy

Dec. 07, 2012 Rise Set
Actual Time 7:24 AM EST 5:20 PM EST
Civil Twilight 6:56 AM EST 5:48 PM EST
Nautical Twilight 6:25 AM EST 6:19 PM EST
Astronomical Twilight 5:55 AM EST 6:49 PM EST
Moon 12:56 AM EST (12/7) 1:04 PM EST (12/7)
Length of Visible Light 10h 51m
Length of Day
9h 55m
Last Quarter, 39% of the Moon is Illuminated
Dec 7
Last Quarter
Dec 13
New
Dec 20
First Quarter
Dec 28
Full
Jan 4
Last Quarter

Hourly Weather History & Observations

Time (EST) Temp. Windchill Dew Point Humidity Pressure Visibility Wind Dir Wind Speed Gust Speed Precip Events Conditions
12:56 AM 48.9 °F - 35.1 °F 59% 30.17 in 10.0 mi ENE 5.8 mph - N/A   Overcast
1:56 AM 46.0 °F 41.0 °F 39.0 °F 76% 30.17 in 8.0 mi East 10.4 mph - 0.00 in Rain Light Rain
2:11 AM 44.6 °F 41.4 °F 41.0 °F 87% 30.17 in 7.0 mi NE 5.8 mph - 0.00 in Rain Light Rain
2:56 AM 46.0 °F 43.1 °F 41.0 °F 83% 30.16 in 10.0 mi NE 5.8 mph - 0.00 in   Overcast
3:56 AM 46.9 °F - 39.9 °F 77% 30.14 in 10.0 mi North 3.5 mph - N/A   Overcast
4:56 AM 46.9 °F - 39.9 °F 77% 30.13 in 10.0 mi North 3.5 mph - N/A   Overcast
5:56 AM 46.9 °F - 42.1 °F 83% 30.14 in 10.0 mi NNW 4.6 mph - 0.00 in   Overcast
6:56 AM 48.0 °F - 39.9 °F 74% 30.14 in 10.0 mi Calm Calm - N/A   Overcast
7:34 AM 48.2 °F - 39.2 °F 71% 30.14 in 10.0 mi ENE 4.6 mph - N/A   Overcast
7:56 AM 48.9 °F - 39.0 °F 69% 30.14 in 10.0 mi NE 3.5 mph - N/A   Overcast
8:17 AM 48.2 °F - 39.2 °F 71% 30.14 in 10.0 mi ENE 3.5 mph - N/A   Overcast
8:56 AM 50.0 °F - 39.0 °F 66% 30.14 in 10.0 mi NE 5.8 mph - N/A   Overcast
9:51 AM 51.8 °F - 39.2 °F 62% 30.14 in 10.0 mi ENE 9.2 mph - N/A   Overcast
9:56 AM 52.0 °F - 41.0 °F 66% 30.14 in 10.0 mi East 6.9 mph - N/A   Overcast
10:56 AM 53.1 °F - 42.1 °F 66% 30.12 in 10.0 mi NE 5.8 mph - N/A   Overcast
11:56 AM 55.0 °F - 44.1 °F 67% 30.10 in 10.0 mi Calm Calm - N/A   Overcast
12:29 PM 55.4 °F - 44.6 °F 67% 30.08 in 10.0 mi Calm Calm - N/A   Overcast
12:56 PM 57.0 °F - 45.0 °F 64% 30.06 in 10.0 mi Calm Calm - N/A   Overcast
1:56 PM 57.0 °F - 45.0 °F 64% 30.03 in 10.0 mi East 3.5 mph - N/A   Overcast
2:56 PM 59.0 °F - 46.0 °F 62% 30.01 in 10.0 mi Calm Calm - N/A   Overcast
3:56 PM 60.1 °F - 46.9 °F 62% 30.01 in 10.0 mi Variable 3.5 mph - N/A   Overcast
4:13 PM 60.8 °F - 48.2 °F 63% 30.02 in 10.0 mi Calm Calm - N/A   Scattered Clouds
4:56 PM 59.0 °F - 48.0 °F 67% 30.01 in 10.0 mi Calm Calm - N/A   Clear
5:56 PM 55.0 °F - 48.0 °F 77% 30.01 in 10.0 mi Calm Calm - N/A   Clear
6:56 PM 51.1 °F - 46.9 °F 86% 30.02 in 10.0 mi Calm Calm - N/A   Clear
7:56 PM 48.9 °F - 46.0 °F 90% 30.02 in 10.0 mi Calm Calm - N/A   Clear
8:56 PM 48.0 °F - 46.9 °F 96% 30.04 in 10.0 mi NNW 3.5 mph - N/A   Clear
9:56 PM 46.0 °F - 45.0 °F 96% 30.04 in 10.0 mi Calm Calm - N/A   Clear
10:56 PM 45.0 °F - 44.1 °F 97% 30.05 in 10.0 mi Calm Calm - N/A   Clear
11:56 PM 45.0 °F - 44.1 °F 97% 30.05 in 9.0 mi Calm Calm - N/A   Partly Cloudy